Погода в Шарлыке

Россия / Оренбургская область     52°55′33″N   54°44′28″E
темп.,
°C
ветер,
м/с
пор.,
м/с
влажн.,
%
обл.,
%
осадки,
мм/ч
давл.,
гПа
погр.,
м
10 апреля, сб
сб1023:00+4юв61391100 0.0 1025183
02:00+3юв51086100 0.0 1026137
05:00+3юв51183100 0.0 1027148
08:00+3юв6138391 0.0 1028180
11:00+4юв71496100 0.0 1028237
14:00+7юв81595100 0.0 1028344
17:00+8юв10179187 0.0 1029380
20:00+5юв10189580 0.0 1030311
11 апреля, вс
вс1123:00+4юв91697100 0.0 1031344
02:00+3юв91784100 0.0 1032298
05:00+2юв91779100 0.0 1033277
08:00+2юв9168088 0.0 1033301
11:00+7ююв912695 0.0 1033417
14:00+12ююв89565 0.0 1033598
17:00+14ююв79505 0.0 1032691
20:00+11юв597036 0.0 1033130
12 апреля, пн
пн1223:00+7юв348843 0.0 103448
02:00+6юв348773 0.0 103541
05:00+4юв33835 0.0 103616
08:00+5юв22705 0.0 103647
11:00+10юв33455 0.0 1036305
14:00+14юв333490 0.0 1035563
17:00+16вюв2229100 0.0 1034728
20:00+14вюв233994 0.0 103411
13 апреля, вт
вт1323:00+11вюв22488 0.0 103410
02:00+8ююв225637 0.0 103510
05:00+6юв226328 0.0 103610
08:00+7юв22555 0.0 103627
11:00+11юв56425 0.0 1036425
14:00+15юв55295 0.0 1034775
17:00+17ююв45255 0.0 1033961
20:00+14юв33385 0.0 103211
14 апреля, ср
ср1423:00+11юв33485 0.0 103313
02:00+8ююв22609 0.0 103210
05:00+6юв22725 0.0 103310
08:00+7юв22665 0.0 103211
11:00+12юв23515 0.0 1031386
14:00+16юв23372 0.0 1029791
17:00+17вюв22300 0.0 1027958
20:00+15всв22390 0.0 102611